{"data":{"norad_id":27868,"intl_designator":"2003-037A","name":"COSMOS 2400","alt_names":[],"object_type":"PAYLOAD","status":"ACTIVE","operator":null,"country":"CIS","launch_date":"2003-08-19","launch_site_code":"PLMSC","launch_vehicle":null,"mission":null,"orbit_class":"UNKNOWN","rcs_meters":0.9004,"size_class":null,"mass_kg":null,"dimensions":null,"purposes":[],"wikipedia_slug":null,"has_3d_model":false,"image_url":null,"decayed_at":null,"tle_current":{"epoch":"2026-05-25T03:57:21.095136Z","epoch_age_seconds":64077,"freshness":"FRESH","line1":"1 27868U 03037A   26145.16482749 -.00000005  00000+0 -10761-3 0  9997","line2":"2 27868  82.4721 344.2908 0022375 104.9794 255.3766 12.45189604 34674","mean_motion":12.45189604,"eccentricity":0.0022375,"inclination_deg":82.4721,"raan_deg":344.2908,"arg_perigee_deg":104.9794,"mean_anomaly_deg":255.3766,"bstar":-0.00010761,"rev_number":3467,"period_min":115.64503874544,"perigee_km":1467.0872347579,"apogee_km":1502.2733421237,"semimajor_km":7862.8172884408,"source":"CELESTRAK","updated_at":"2026-05-25T13:37:55.052864Z"}}}